Temp
8 8 8 8 8 8 8 8 8 8 7 7 8 8 7 7 8 8 8 8 8 8 8 8 9 9 9 9 9 9 9 9 9
8 8 7 8 8 8 8 8 8 8 8 7 7 7 8 8 7 7 7 7 8 8 8 8 8 8 9 9 9 9 9 9 8
8 8 8 8 8 8 8 8 8 8 8 7 7 7 7 7 7 7 7 7 7 7 7 7 8 8 8 8 8 8 8 8 8
8 8 7 7 7 8 8 8 8 8 8 7 7 7 7 7 7 7 7 7 7 7 7 7 7 7 7 8 8 8 8 8 8
8 7 7 7 7 7 7 7 8 8 8 7 7 7 7 7 7 7 6 7 7 7 7 7 7 7 7 7 7 8 8 8 8
7 7 7 7 7 7 7 7 7 7 7 7 7 7 7 7 7 7 7 7 7 7 7 7 7 7 7 7 7 7 7 7 7
7 7 7 7 7 7 7 7 7 7 7 7 7 7 7 7 7 6 6 6 6 6 6 6 6 6 7 7 7 7 7 7 7
7 7 7 7 7 7 7 7 6 6 6 6 6 6 6 7 7 7 6 6 6 6 6 6 6 6 6 6 6 6 7 7 7
7 7 7 7 6 6 6 6 6 6 6 6 6 6 6 6 6 7 6 6 6 6 6 6 6 6 6 6 6 6 6 6 6
6 7 7 7 6 6 6 6 6 6 6 6 6 5 5 5 6 6 6 6 6 6 5 5 5 5 6 6 6 6 6 6 6
6 6 6 6 6 6 6 6 5 5 5 5 5 5 5 5 5 5 5 6 6 5 5 5 5 5 5 5 5 5 5 6 6
5 6 6 5 5 5 6 5 5 6 5 5 5 5 4 4 4 4 5 5 6 5 5 5 5 5 5 5 5 5 5 5 5
4 4 5 5 5 5 5 5 5 5 5 5 5 5 5 5 4 4 4 4 5 5 5 5 5 5 5 5 5 5 5 5 5
4 4 4 4 4 4 4 4 4 4 4 4 4 4 5 5 5 4 4 4 5 5 5 5 4 5 4 5 5 5 5 5 5
4 4 4 4 4 4 4 4 4 4 4 4 4 5 4 4 4 5 5 4 5 5 5 4 4 4 4 4 3 4 4 4 4
3 3 4 4 4 4 4 4 4 4 4 4 4 4 4 4 4 5 5 5 5 5 5 5 4 4 3 3 3 2 2 4 4
2 2 3 3 3 3 3 3 4 4 3 3 4 4 4 4 4 4 4 4 4 4 4 4 4 4 4 4 4 2 3 3 3
1 1 2 3 3 3 3 3 3 3 3 3 3 3 4 4 5 4 4 3 3 3 4 4 4 4 4 4 3 2 2 2 2
0 1 1 2 2 2 2 2 2 2 3 3 3 3 3 3 4 4 4 3 3 3 3 3 3 3 3 3 3 2 1 1 1
0 1 1 1 1 2 2 2 2 2 2 3 3 4 3 3 2 3 4 4 4 3 3 3 3 3 3 3 3 3 1 0 1
Height
3173 3174 3174 3174 3173 3173 3173 3172 3171 3171 3171 3170 3170 3170 3170 3170 3170 3172 3170 3170 3170 3171 3170 3170 3170 3170 3169 3169 3169 3168 3168 3167 3166
3172 3172 3172 3173 3173 3173 3172 3171 3171 3170 3170 3170 3170 3170 3170 3171 3171 3171 3170 3170 3170 3169 3169 3169 3169 3169 3169 3168 3167 3167 3166 3166 3165
3170 3171 3171 3172 3172 3171 3171 3171 3170 3170 3170 3170 3170 3169 3170 3170 3170 3171 3170 3170 3169 3168 3168 3168 3168 3167 3167 3167 3166 3166 3165 3164 3164
3167 3168 3169 3169 3170 3170 3170 3170 3169 3169 3169 3169 3169 3169 3169 3169 3169 3170 3170 3169 3169 3169 3168 3167 3167 3167 3166 3165 3165 3165 3164 3163 3163
3165 3165 3166 3166 3167 3167 3167 3168 3168 3168 3168 3168 3168 3168 3167 3168 3168 3169 3168 3168 3168 3168 3168 3168 3168 3166 3165 3164 3163 3163 3162 3161 3161
3161 3162 3162 3162 3163 3164 3165 3166 3166 3166 3166 3166 3166 3166 3165 3166 3166 3166 3167 3166 3166 3165 3165 3165 3165 3165 3164 3163 3162 3162 3161 3160 3159
3157 3158 3158 3159 3160 3160 3161 3162 3163 3163 3164 3164 3164 3164 3164 3163 3164 3165 3164 3164 3163 3163 3162 3162 3162 3161 3161 3161 3160 3160 3159 3158 3158
3153 3154 3154 3155 3156 3157 3157 3158 3159 3160 3160 3161 3161 3161 3160 3160 3161 3161 3162 3161 3160 3160 3159 3159 3159 3158 3158 3158 3157 3157 3157 3156 3155
3148 3150 3150 3151 3152 3153 3154 3154 3154 3155 3156 3157 3157 3157 3157 3157 3157 3157 3158 3158 3157 3157 3157 3156 3155 3155 3154 3154 3153 3154 3153 3153 3152
3143 3145 3146 3147 3148 3149 3149 3150 3150 3151 3151 3152 3152 3153 3153 3153 3153 3153 3153 3154 3154 3153 3153 3153 3152 3152 3151 3151 3150 3150 3150 3149 3149
3138 3139 3140 3141 3142 3143 3144 3144 3146 3147 3146 3147 3147 3147 3147 3148 3148 3149 3149 3149 3150 3149 3149 3148 3149 3148 3148 3147 3147 3147 3146 3146 3145
3132 3134 3135 3136 3136 3137 3138 3139 3139 3140 3141 3142 3142 3141 3141 3141 3141 3142 3143 3143 3144 3145 3144 3145 3145 3144 3143 3143 3142 3142 3142 3141 3141
3124 3127 3130 3130 3130 3131 3132 3132 3133 3133 3133 3135 3137 3136 3135 3135 3135 3134 3135 3136 3137 3138 3138 3138 3139 3139 3139 3138 3138 3137 3137 3136 3136
3119 3121 3123 3124 3125 3127 3127 3127 3126 3127 3127 3127 3127 3127 3128 3128 3127 3128 3128 3128 3129 3131 3131 3133 3132 3132 3133 3133 3133 3132 3132 3131 3131
3112 3115 3117 3118 3119 3121 3121 3121 3121 3121 3121 3120 3120 3120 3119 3119 3119 3120 3120 3120 3120 3121 3123 3123 3125 3125 3125 3125 3125 3125 3127 3125 3124
3105 3107 3110 3111 3112 3114 3115 3115 3115 3116 3115 3113 3113 3112 3110 3110 3111 3111 3111 3112 3111 3112 3112 3113 3115 3116 3117 3117 3117 3117 3118 3120 3119
3096 3100 3102 3104 3105 3106 3107 3108 3109 3109 3110 3106 3105 3101 3103 3104 3103 3103 3102 3102 3102 3102 3103 3104 3105 3107 3107 3107 3109 3109 3110 3112 3113
3086 3090 3093 3095 3097 3099 3101 3101 3101 3102 3103 3101 3098 3094 3091 3093 3093 3094 3094 3093 3093 3094 3095 3095 3095 3096 3097 3099 3099 3100 3101 3103 3104
3073 3081 3086 3089 3090 3092 3093 3094 3094 3092 3091 3092 3092 3089 3085 3082 3079 3080 3080 3083 3084 3085 3086 3087 3087 3087 3088 3089 3091 3092 3093 3094 3096
3069 3072 3076 3080 3082 3084 3085 3086 3085 3084 3082 3081 3080 3078 3077 3075 3072 3067 3070 3071 3073 3074 3076 3076 3077 3079 3079 3080 3081 3083 3083 3084 3087
Wind_Speed
6 5 6 4 3 3 3 3 3 2 3 5 6 6 5 4 5 3 2 3 2 1 2 2 3 3 3 4 4 5 5 5 6
9 7 7 6 5 5 5 4 3 3 3 4 5 6 6 5 6 3 4 3 3 3 3 3 4 4 5 5 5 6 6 7 6
11 10 9 8 7 7 7 6 5 4 3 4 5 6 6 7 6 6 8 6 5 5 5 5 6 6 6 7 7 6 7 7 7
14 13 11 11 11 10 9 8 7 5 4 4 6 7 8 8 8 7 9 9 9 9 8 7 7 8 8 8 8 8 8 8 8
17 15 14 13 12 11 10 10 9 8 6 6 6 8 9 9 10 9 10 11 11 11 12 12 12 11 10 10 10 9 9 9 8
19 17 16 16 15 14 12 11 11 11 9 8 8 8 10 10 10 11 11 12 13 12 12 12 13 13 13 13 13 11 10 10 10
22 21 18 18 17 16 15 15 14 13 11 11 11 11 12 11 11 11 12 14 13 14 14 14 14 14 14 15 15 14 13 12 12
22 22 20 18 18 17 17 16 17 16 15 14 14 15 15 15 14 12 12 14 15 15 15 15 16 15 15 15 16 15 15 13 12
25 23 22 21 19 20 22 19 18 19 19 19 17 17 18 20 19 17 15 15 17 17 17 17 17 17 16 15 16 16 16 15 14
27 25 23 22 21 20 20 21 20 20 21 23 22 21 20 21 23 23 21 18 18 19 19 19 19 19 18 17 16 16 16 17 16
27 23 20 20 21 21 21 21 22 23 23 22 23 24 24 25 24 25 27 23 22 22 22 21 21 20 20 19 18 17 17 18 19
28 25 23 23 23 25 24 24 25 23 22 22 22 24 25 25 26 27 28 28 27 25 26 25 25 23 22 21 19 19 18 18 18
32 28 25 26 26 26 26 26 27 27 27 27 24 26 28 28 29 28 31 31 31 29 30 26 26 27 27 24 22 20 19 19 19
32 28 27 26 25 23 23 24 25 26 27 28 29 30 33 33 32 30 31 29 33 35 33 31 29 30 29 28 26 24 21 21 20
34 31 30 29 28 27 28 27 26 26 28 32 34 35 35 34 35 35 32 33 35 36 30 33 34 34 34 35 34 32 28 25 23
36 32 32 30 31 31 29 28 27 28 29 32 31 33 36 37 37 38 37 38 36 35 34 34 33 34 39 42 44 45 26 30 27
36 36 33 32 34 32 30 31 32 31 30 33 35 38 36 35 38 38 38 39 34 35 36 36 38 39 38 35 34 32 30 30 35
34 36 37 34 36 34 32 32 34 33 31 32 36 41 43 41 41 41 40 38 38 41 33 33 33 35 34 31 31 32 36 40 35
33 36 37 35 36 35 33 34 35 38 39 38 40 43 46 48 50 47 44 39 38 36 38 34 31 31 32 33 32 35 38 42 36
38 39 40 36 35 35 38 38 38 41 44 46 46 46 48 48 44 47 45 42 39 37 35 34 33 28 30 30 30 35 40 39 37
Wind_Direction
235 251 255 252 271 277 311 336 339 272 224 230 230 236 232 231 205 176 207 189 197 258 315 329 326 324 322 318 313 314 315 317 320
243 247 255 267 280 282 285 303 321 308 261 236 243 248 248 255 266 253 236 248 255 248 268 287 303 312 312 307 306 310 309 309 311
245 251 254 258 267 271 271 280 291 303 288 271 267 265 265 262 264 269 282 280 272 271 279 289 295 298 301 302 303 304 303 304 307
243 246 246 251 265 265 264 267 274 285 297 287 275 278 280 275 271 268 276 279 286 291 290 286 287 293 297 298 300 302 306 307 307
252 249 246 251 259 261 258 263 273 277 283 285 284 281 280 282 282 277 273 277 281 289 296 301 301 298 296 295 296 297 299 301 302
249 248 249 248 250 254 258 262 266 268 271 276 280 280 280 285 286 289 282 281 284 286 290 295 298 297 296 296 298 299 296 297 298
246 248 247 253 255 257 257 259 261 265 266 268 272 275 282 287 287 286 286 286 284 285 286 287 289 290 291 292 295 297 293 295 297
243 247 253 251 255 261 258 256 256 257 261 262 264 268 274 278 281 281 277 281 283 283 282 284 284 283 284 287 291 291 291 290 290
248 248 252 254 257 261 263 264 256 258 260 261 263 267 271 275 276 277 279 280 284 285 285 285 283 281 281 281 282 285 283 281 279
251 257 255 260 259 261 263 263 263 261 261 263 264 262 265 270 277 278 277 275 280 284 286 286 287 288 287 284 282 281 277 278 277
248 247 251 260 265 262 260 258 259 263 265 264 267 270 269 268 269 276 276 277 279 279 281 283 285 287 288 289 286 283 277 278 276
251 250 260 261 258 260 260 262 263 264 262 258 265 267 269 272 271 270 274 273 276 276 279 282 284 283 282 281 279 278 276 275 275
246 251 257 259 260 260 262 265 269 272 273 270 264 270 271 272 271 274 274 272 274 272 269 272 279 283 283 280 276 271 269 267 267
245 252 256 256 255 255 260 265 268 270 271 274 275 272 270 271 269 266 274 273 275 277 275 271 270 273 278 283 277 270 264 262 262
248 253 253 253 253 257 261 264 267 271 276 276 274 273 271 273 273 272 268 267 268 270 277 271 268 268 268 274 270 266 264 257 256
247 247 249 251 258 264 261 255 269 274 277 276 279 277 274 271 272 270 275 272 271 270 267 268 262 265 269 272 276 271 265 260 257
236 242 243 248 255 256 263 263 271 273 274 274 275 274 272 275 278 277 277 274 274 270 267 267 266 272 272 274 277 272 258 255 268
237 238 238 245 254 257 263 269 275 275 270 272 277 280 280 283 281 277 271 272 273 274 269 279 275 273 267 264 264 262 256 258 264
237 241 245 249 254 261 266 273 277 279 279 275 274 278 281 283 283 279 279 273 274 274 266 264 270 274 268 259 263 266 270 268 262
239 240 238 246 253 260 265 269 275 277 282 282 279 276 276 278 274 278 279 278 278 276 269 269 253 275 266 263 264 267 268 263 256